This is the latest recevied weather packets stored in our database for station/object VE4GLS. If no packets are shown the sender has not sent any weather packets the latest 1 day(s).
| Time | Temp. | Humidity | Pressure | Rain* | Wind** | Luminosity | Snow |
|---|---|---|---|---|---|---|---|
| 1778016983 | 4.44° C | 55% | 1011.8 hPa | 0 mm | 5.36 m/s, 333° | - | - |
| 1778016756 | 5° C | 55% | 1011.8 hPa | 0 mm | 6.26 m/s, 324° | - | - |
| 1778016384 | 4.44° C | 56% | 1011.7 hPa | 0 mm | 4.47 m/s, 334° | - | - |
| 1778015855 | 4.44° C | 55% | 1011.6 hPa | 0 mm | 8.05 m/s, 295° | - | - |
| 1778015783 | 4.44° C | 55% | 1011.7 hPa | 0 mm | 4.47 m/s, 303° | - | - |
| 1778015182 | 5° C | 54% | 1011.8 hPa | 0 mm | 7.6 m/s, 314° | - | - |
| 1778014955 | 5° C | 55% | 1011.7 hPa | 0 mm | 3.58 m/s, 320° | - | - |
| 1778014583 | 5° C | 54% | 1011.6 hPa | 0 mm | 6.71 m/s, 299° | - | - |
| 1778014055 | 4.44° C | 56% | 1011.5 hPa | 0 mm | 6.26 m/s, 310° | - | - |
| 1778013983 | 4.44° C | 56% | 1011.6 hPa | 0 mm | 6.26 m/s, 302° | - | - |
| 1778013384 | 3.89° C | 56% | 1011.6 hPa | 0 mm | 7.6 m/s, 307° | - | - |
| 1778013154 | 3.89° C | 56% | 1011.7 hPa | 0 mm | 6.26 m/s, 303° | - | - |
| 1778012782 | 3.89° C | 57% | 1011.7 hPa | 0 mm | 6.26 m/s, 330° | - | - |
| 1778012254 | 4.44° C | 56% | 1011.8 hPa | 0 mm | 6.26 m/s, 308° | - | - |
| 1778012182 | 4.44° C | 56% | 1011.8 hPa | 0 mm | 5.81 m/s, 320° | - | - |
| 1778011582 | 4.44° C | 56% | 1011.7 hPa | 0 mm | 7.15 m/s, 328° | - | - |
| 1778011354 | 3.89° C | 58% | 1011.7 hPa | 0 mm | 5.81 m/s, 308° | - | - |
| 1778010983 | 3.33° C | 59% | 1011.7 hPa | 0 mm | 6.26 m/s, 297° | - | - |
| 1778010454 | 3.33° C | 59% | 1011.7 hPa | 0 mm | 7.6 m/s, 300° | - | - |
| 1778010382 | 3.33° C | 60% | 1011.7 hPa | 0 mm | 8.94 m/s, 307° | - | - |
| 1778009783 | 3.33° C | 59% | 1011.6 hPa | 0 mm | 7.15 m/s, 311° | - | - |
| 1778009555 | 3.33° C | 60% | 1011.6 hPa | 0 mm | 6.26 m/s, 323° | - | - |
| 1778009183 | 3.33° C | 59% | 1011.7 hPa | 0 mm | 6.71 m/s, 329° | - | - |
| 1778008656 | 3.33° C | 59% | 1011.6 hPa | 0 mm | 5.81 m/s, 306° | - | - |
| 1778008584 | 3.33° C | 60% | 1011.6 hPa | 0 mm | 6.26 m/s, 305° | - | - |
* Rain latest hour (hover to see other rain measurements)
** Current wind speed in m/s (hover to see current wind gust speed)